TimeAST,TemperatureF,Dew PointF,Humidity,Sea Level PressureIn,VisibilityMPH,Wind Direction,Wind SpeedMPH,Gust SpeedMPH,PrecipitationIn,Events,Conditions,WindDirDegrees,DateUTC
12:00 AM,78.8,71.6,78,30.01,-9999.0,East,10.4,-,N/A,,Unknown,90,2013-01-25 04:00:00
1:00 AM,78.8,71.6,78,29.98,-9999.0,East,11.5,-,N/A,,Unknown,90,2013-01-25 05:00:00
2:00 AM,78.8,71.6,78,29.98,-9999.0,East,10.4,-,N/A,,Unknown,90,2013-01-25 06:00:00
3:00 AM,78.8,71.6,78,29.95,-9999.0,East,11.5,-,N/A,,Unknown,90,2013-01-25 07:00:00
4:00 AM,78.8,71.6,78,29.95,-9999.0,East,10.4,-,N/A,,Unknown,80,2013-01-25 08:00:00
5:00 AM,78,72,77,,,East,18.4,,,,Clear,100,2013-01-25 09:00:00
5:00 AM,78.8,71.6,78,29.95,-9999.0,ENE,10.4,-,N/A,,Unknown,70,2013-01-25 09:00:00
6:00 AM,77.0,71.6,83,29.98,-9999.0,ENE,8.1,-,N/A,,Unknown,70,2013-01-25 10:00:00
8:00 AM,77,74,86,30.03,19,ENE,6.9,,,,Partly Cloudy,70,2013-01-25 12:00:00
8:00 AM,77.0,73.4,89,30.01,6.2,ENE,5.8,-,N/A,,Scattered Clouds,60,2013-01-25 12:00:00
11:00 AM,83,72,63,30.05,19,East,15.0,,,,Partly Cloudy,80,2013-01-25 15:00:00
11:00 AM,82.4,73.4,74,30.04,6.2,East,16.1,-,N/A,,Scattered Clouds,80,2013-01-25 15:00:00
1:00 PM,82.4,71.6,70,30.01,6.2,East,16.1,-,N/A,,Scattered Clouds,80,2013-01-25 17:00:00
2:00 PM,86.0,71.6,62,29.98,6.2,ENE,13.8,-,N/A,,Scattered Clouds,70,2013-01-25 18:00:00
3:00 PM,84.2,71.6,66,29.95,6.2,East,13.8,-,N/A,,Scattered Clouds,80,2013-01-25 19:00:00
4:00 PM,84.2,71.6,66,29.95,6.2,East,13.8,-,N/A,,Scattered Clouds,80,2013-01-25 20:00:00
5:00 PM,82.4,71.6,70,29.95,-9999.0,ENE,11.5,-,N/A,,Unknown,70,2013-01-25 21:00:00
6:00 PM,80.6,71.6,74,29.95,6.2,ENE,11.5,-,N/A,,Partly Cloudy,60,2013-01-25 22:00:00
8:00 PM,78.8,71.6,78,29.98,6.2,ENE,11.5,-,N/A,,Scattered Clouds,70,2013-01-26 00:00:00
9:00 PM,80.6,71.6,74,30.01,6.2,ENE,12.7,-,N/A,,Scattered Clouds,70,2013-01-26 01:00:00
11:00 PM,78.8,71.6,78,30.01,-9999.0,ENE,11.5,-,N/A,,Unknown,70,2013-01-26 03:00:00